Regional Weather Roundup
Issued by NWS

Home | Current Version | Previous Version | Text Only | Print | Product List | Glossary On
Versions: 1 2 3 4 5 6 7 8 9 10 11 12 13 14 15 16 17 18 19 20 21 22 23 24 25 26 27 28 29 30 31 32 33 34 35 36 37 38 39 40 41 42 43 44 45 46 47 48 49 50
000
ASUS45 KTFX 280010
RWRMT
MONTANA REGIONAL WEATHER ROUNDUP
NATIONAL WEATHER SERVICE GREAT FALLS MT
600 PM MDT MON MAR 27 2017

NOTE: "FAIR" INDICATES FEW OR NO CLOUDS BELOW 12000 FEET WITH NO
SIGNIFICANT WEATHER AND/OR OBSTRUCTIONS TO VISIBILITY.

MTZ001>007-043-280100-
WEST OF THE DIVIDE

CITY           SKY/WX    TMP DP  RH WIND       PRES   REMARKS
KALISPELL      PTSUNNY   43  39  86 SE13      30.00R
MISSOULA       LGT RAIN  43  36  76 N14       30.04R
BUTTE          SUNNY     44  26  49 NW17G28   29.95R
MULLAN PASS    PTSUNNY   29  27  92 VRB3      30.02R
ANACONDA         N/A     45  32  61 NE9       29.97R
DEER LODGE       N/A     43  30  61 NW14G21   30.00R
EUREKA           N/A     52  30  43 S10       29.98R
HAMILTON         N/A     48  27  43 NW12G18   30.02R
RONAN            N/A     45  37  73 SE1       30.07R
$$

MTZ008-052>055-280100-
SOUTHWEST MONTANA

CITY           SKY/WX    TMP DP  RH WIND       PRES   REMARKS
BOZEMAN        CLOUDY    47  35  63 NW22      29.90R
DILLON         CLOUDY    44  31  60 NE13      29.90R
W YELLOWSTONE  CLOUDY    37  30  75 W8        29.92R WCI  31
ENNIS          SUNNY     48  25  40 VRB3      29.93R
THREE FORKS      N/A     45 -12   9 NW12      29.93R
$$

MTZ009-010-012-014-046-048-049-054-280100-
EAST SLOPES AND CENTRAL MONTANA

CITY           SKY/WX    TMP DP  RH WIND       PRES   REMARKS
CUT BANK       CLOUDY    50  26  39 W8        29.89R
GREAT FALLS    LGT RAIN  50  31  48 W18       29.89R
MALMSTROM AFB  CLOUDY    53  28  39 NW7       29.89R
HELENA         CLOUDY    49  32  52 W17       29.93R
AUGUSTA        LGT RAIN  47  30  53 SW10      29.91R
CHOTEAU          N/A     48  32  53 CALM      29.93R
CONRAD           N/A     52  32  46 SW16      29.93R
FAIRFIELD      CLOUDY    48  31  52 CALM      29.91R
POWER          LGT RAIN  46  34  62 W17       29.90R
RAYNESFORD     PTSUNNY   50  28  43 S5        29.89R
$$

MTZ011-013-016-021-045-047-050-051-280100-
NORTH CENTRAL MONTANA

CITY           SKY/WX    TMP DP  RH WIND       PRES   REMARKS
HAVRE          CLOUDY    55  35  47 E14       29.85R
LEWISTOWN      CLOUDY    51  26  37 W7        29.88R
N BAR RANCH    PTSUNNY   50  30  46 NW5       29.91R
CHINOOK          N/A     55  36  47 E12       29.86R
DENTON         PTSUNNY   52  27  37 W9        29.85R
FORT BENTON      N/A     55  28  35 MISG      29.89R
GEYSER         PTSUNNY   50  28  41 W13       29.88R
JUDITH GAP       N/A     48  28  46 N12       29.88R
STANFORD       PTSUNNY   48  28  45 NE3       29.89R
WINIFRED       PTSUNNY   53  26  35 NW9       29.87R
$$

MTZ017>020-022>027-061-062-280100-
NORTHEAST MONTANA

CITY           SKY/WX    TMP DP  RH WIND       PRES   REMARKS
GLASGOW        SUNNY     57  33  40 E10       29.86R
JORDAN           N/A     58  33  39 N9        29.84R
SIDNEY         PTSUNNY   52  39  61 N12       29.90R
WOLF POINT     PTSUNNY   55  37  50 E14       29.87R
MALTA          CLOUDY    54  37  54 E12G18    29.87R
PLENTYWOOD       N/A     48  37  66 E6        29.94R
POPLAR           N/A     52  37  58 E21       29.87R
$$

MTZ028>42-056>058-280100-
SOUTHCENTRAL AND SOUTHEAST MONTANA

CITY           SKY/WX    TMP DP  RH WIND       PRES   REMARKS
BAKER          CLOUDY    58  27  30 S9        29.85R
BILLINGS       PTSUNNY   57  29  34 NW10      29.84R
LIVINGSTON     CLOUDY    49  33  54 S8        29.87R
MILES CITY     CLOUDY    58  35  42 E7        29.83R
FORSYTH          N/A     61  28  29 NW6       29.82R
HARLOWTON      PTSUNNY   51  29  42 N14       29.87R
LAUREL           N/A     56  28  34 NW6       29.85R
$$

REGIONAL REPORTS...DAKOTAS

CITY           SKY/WX    TMP DP  RH WIND       PRES   REMARKS
WILLISTON      CLOUDY    54  34  46 E12       29.91R
MINOT          CLOUDY    37  35  92 N14       29.97F FOG     WCI  28
DICKINSON      PTSUNNY   58  25  28 E10       29.85R
BEACH            N/A    N/A N/A N/A MISG        N/A
TIOGA            N/A     41  41 100 E16       29.95R
WATFORD CITY     N/A     52  39  62 E13G20    29.89R
BISMARCK       CLOUDY    62  27  26 SE8       29.91R
GRAND FORKS    MOCLDY    41  39  93 NE10      29.99F
FARGO          CLEAR     55  44  66 NE7       29.96R
BUFFALO SD       N/A     59  30  33 E12       29.80R
RAPID CITY     MOSUNNY   58  35  42 E5        29.84R
$$

REGIONAL REPORTS...WYOMING/IDAHO/WASHINGTON

CITY           SKY/WX    TMP DP  RH WIND       PRES   REMARKS
GILLETTE       CLOUDY    57  28  33 N6        29.82R
SHERIDAN       CLOUDY    57  32  38 SW6       29.83R
BUFFALO WY     CLOUDY    54  28  36 NE3       29.86R
CODY           CLOUDY    53  25  33 SE13      29.84R
YELLOWSTONE LA   N/A     31  29  92 CALM      29.94R
IDAHO FALLS    CLOUDY    46  36  68 SW10      29.92S
SALMON         CLOUDY    50  25  37 N8        29.95R
BOISE          PTSUNNY   52  32  46 NW22G32   30.06R
SPOKANE        CLOUDY    43  35  73 CALM      30.08R
$$

REGIONAL REPORTS...ALBERTA

CITY           SKY/WX    TMP DP  RH WIND       PRES   REMARKS
EDMONTON       MOSUNNY   39  32  75 E8        29.89R
CALGARY        CLOUDY    50  23  34 NE7       29.83R
LETHBRIDGE     PTSUNNY   55  23  28 SW16      29.84R
MEDICINE HAT   PTSUNNY   57  27  30 SW3       29.84R
WATERTON GATE    N/A     46  30  53 SW15G22     N/A
CARDSTON         N/A     50  25  37 W10G17      N/A
MILK RIVER       N/A     54  25  32 W10         N/A
$$

REGIONAL REPORTS...SASKATCHEWAN

CITY           SKY/WX    TMP DP  RH WIND       PRES   REMARKS
SWIFT CURRENT  CLOUDY    50  32  50 E14       29.90R
REGINA         PTSUNNY   43  36  75 E10       29.98R
CYPRESS HILLS    N/A     45  30  57 SE10        N/A
VAL MARIE        N/A     45  36  70 E14         N/A
ROCKGLEN         N/A     45  32  61 E3          N/A
ASSINIBOIA       N/A     36  32  87 SE7         N/A  WCI  30
$$



USA.gov is the U.S. government's official web portal to all federal, state and local government web resources and services.